Station OKXC1 - 9414776 - Oakland Berth 34, CA Image indicating link to RSS feed of recent meteorological observations for station OKXC1


Conditions at OKXC1 as of
(5:00 pm PDT on 06/20/2024)
0000 GMT on 06/21/2024:
     

Click on the graph icon in the table below to see a time series plot of the last five days of that observation.

5-day plot - Wind Direction Wind Direction (WDIR):WSW ( 250 deg true )
5-day plot - Wind Speed Wind Speed (WSPD): 6.0 kts
5-day plot - Wind Gust Wind Gust (GST): 9.9 kts
5-day plot - Atmospheric Pressure Atmospheric Pressure (PRES):29.86 in
5-day plot - Pressure Tendency Pressure Tendency (PTDY):-0.03 in ( Falling )
5-day plot - Air Temperature Air Temperature (ATMP): 55.9 °F
5-day plot - Wind Speed at 10 Meters Wind Speed at 10 meters (WSPD10M): 5.8 kts
5-day plot - Wind Speed at 20 Meters Wind Speed at 20 meters (WSPD20M): 7.8 kts
5-day plot -  Wind Speed, Wind Gust and Atmospheric Pressure Combined plot of Wind Speed, Gust, and Air Pressure
NOS Water Level Observation Network Water Level
Previous observations
TIME
(PDT)
5-day plot - Wind Direction
WDIR
 
5-day plot - Wind Speed
WSPD
kts
5-day plot - Wind Gust
GST
kts
5-day plot - Wave Height
WVHT
ft
5-day plot - Dominant Wave Period
DPD
sec
5-day plot - Average Wave Period
APD
sec
5-day plot - Mean Wave Direction
MWD
 
5-day plot - Atmospheric Pressure
PRES
in
5-day plot - Pressure Tendency
PTDY
in
5-day plot - Air Temperature
ATMP
°F
5-day plot - Water Temperature
WTMP
°F
5-day plot - Dew Point
DEWP
°F
5-day plot - Salinity
SAL
psu
5-day plot - Visibility
VIS
nmi
5-day plot - Tide (above MLLW)
TIDE
ft
2024-06-20 04:54 pm W 6.0 11.1----29.86- 56.5-----
2024-06-20 04:48 pmWSW 5.1 7.0----29.86- 56.7-----
2024-06-20 04:42 pm W 4.1 6.0----29.87- 55.6-----
2024-06-20 04:36 pmWSW 5.1 8.0----29.87- 56.7-----
2024-06-20 04:30 pm W 8.0 11.1----29.86- 56.3-----
2024-06-20 04:24 pm W 8.9 14.0----29.86- 56.5-----
2024-06-20 04:18 pm W 8.9 14.0----29.86- 57.4-----
2024-06-20 04:12 pm W 9.9 12.0----29.86- 56.1-----
2024-06-20 04:06 pm W 8.0 11.1----29.86- 56.8-----
2024-06-20 04:00 pm W 7.0 12.0----29.86-0.04 56.7-----
2024-06-20 03:54 pm W 8.0 11.1----29.87- 55.9-----
2024-06-20 03:48 pm W 8.0 11.1----29.87- 56.1-----
2024-06-20 03:42 pm W 8.0 9.9----29.87- 56.1-----
2024-06-20 03:36 pm W 8.0 11.1----29.87- 55.9-----
2024-06-20 03:30 pm W 8.9 12.0----29.87-------
2024-06-20 03:24 pm W 5.1 8.0----29.87-------
2024-06-20 03:18 pm W 6.0 8.0----29.87-------
2024-06-20 03:12 pm W 5.1 8.0----29.87-------
2024-06-20 03:06 pm W 5.1 8.0----29.87-------
2024-06-20 03:00 pm W 5.1 8.0----29.88-0.04 56.3-----
2024-06-20 02:54 pm W 5.1 8.0----29.88- 55.6-----
2024-06-20 02:48 pmWNW 5.1 8.0----29.88- 56.1-----
2024-06-20 02:42 pm W 5.1 8.9----29.88- 55.9-----
2024-06-20 02:36 pm W 7.0 8.9----29.88- 55.8-----
2024-06-20 02:30 pm W 7.0 8.9----29.88- 55.4-----
2024-06-20 02:24 pm W 5.1 8.0----29.88- 56.5-----
2024-06-20 02:18 pm W 7.0 9.9----29.89- 55.9-----
2024-06-20 02:12 pm W 7.0 9.9----29.89- 55.0-----
2024-06-20 02:06 pm W 8.0 11.1----29.89- 55.0-----
2024-06-20 02:00 pm W 6.0 8.9----29.89-0.02 55.8-----
2024-06-20 01:54 pm W 6.0 8.9----29.90- 55.9-----
2024-06-20 01:48 pm W 6.0 8.9----29.90- 55.4-----
2024-06-20 01:42 pm W 5.1 8.9----29.90- 55.4-----
2024-06-20 01:36 pmWNW 4.1 8.0----29.90- 54.9-----
2024-06-20 01:30 pm W 4.1 7.0----29.90- 54.7-----
2024-06-20 01:24 pmWNW 5.1 8.0----29.91- 54.7-----
2024-06-20 01:18 pm W 5.1 8.9----29.91- 55.0-----
2024-06-20 01:12 pm W 5.1 8.0----29.91- 55.8-----
2024-06-20 01:06 pm W 6.0 8.0----29.91- 54.7-----
2024-06-20 01:00 pm W 6.0 8.0----29.91-0.01 55.4-----
2024-06-20 12:54 pm W 5.1 7.0----29.91- 55.2-----
2024-06-20 12:48 pm W 5.1 8.0----29.91- 55.9-----
2024-06-20 12:42 pmSSW 4.1 8.0----29.91- 56.1-----
2024-06-20 12:36 pm SW 6.0 8.9----29.91- 56.1-----
2024-06-20 12:30 pmWSW 6.0 8.0----29.91-------
2024-06-20 12:24 pm SW 7.0 9.9----29.91-------
2024-06-20 12:18 pm SW 7.0 9.9----29.91- 55.8-----
2024-06-20 12:12 pm SW 8.0 12.0----29.91- 55.6-----
2024-06-20 12:06 pm SW 8.0 12.0----29.91- 55.9-----
2024-06-20 12:00 pm SW 7.0 11.1----29.91+0.00 55.6-----
2024-06-20 11:54 amWSW 8.0 12.0----29.91- 55.6-----
2024-06-20 11:48 amWSW 8.0 12.0----29.91- 55.6-----
2024-06-20 11:42 am SW 8.9 11.1----29.91- 55.4-----
2024-06-20 11:36 am SW 8.0 12.0----29.91- 55.2-----
2024-06-20 11:30 am SW 8.0 12.0----29.91- 54.9-----
2024-06-20 11:24 am SW 8.9 12.0----29.92- 54.7-----
2024-06-20 11:18 am SW 8.9 12.0----29.91- 54.9-----
2024-06-20 11:12 am SW 7.0 9.9----29.92- 54.1-----
2024-06-20 11:06 am SW 8.0 11.1----29.92- 54.1-----
2024-06-20 11:00 am SW 6.0 9.9----29.92+0.01 54.3-----
2024-06-20 10:54 am SW 7.0 9.9----29.91- 53.6-----
2024-06-20 10:48 am SW 8.9 12.0----29.91- 54.0-----
2024-06-20 10:42 am SW 7.0 11.1----29.91- 53.8-----
2024-06-20 10:36 am SW 7.0 9.9----29.91- 53.6-----
2024-06-20 10:30 am SW 7.0 9.9----29.91- 53.4-----
2024-06-20 10:24 am SW 8.0 9.9----29.92- 53.2-----
2024-06-20 10:18 am SW 6.0 9.9----29.92- 53.1-----
2024-06-20 10:12 am SW 6.0 9.9----29.92- 52.9-----
2024-06-20 10:06 am SW 7.0 8.9----29.92- 52.7-----
2024-06-20 10:00 am SW 5.1 8.0----29.92+0.01 52.7-----
2024-06-20 09:54 am SW 6.0 9.9----29.92- 52.3-----
2024-06-20 09:48 am SW 4.1 8.0----29.92- 52.0-----
2024-06-20 09:42 am SW 5.1 8.9----29.92- 52.2-----
2024-06-20 09:36 am SW 7.0 8.9----29.91- 51.6-----
2024-06-20 09:30 amWSW 5.1 6.0----29.92- 51.4-----
2024-06-20 09:24 am SW 5.1 8.0----29.92- 51.6-----
2024-06-20 09:18 am SW 5.1 7.0----29.91- 51.8-----
2024-06-20 09:12 amWSW 6.0 8.0----29.91- 51.4-----
2024-06-20 09:06 amWSW 4.1 8.0----29.91- 51.4-----
2024-06-20 09:00 amWSW 6.0 8.0----29.91+0.01 51.6-----
2024-06-20 08:54 amWSW 5.1 8.0----29.91- 51.4-----
2024-06-20 08:48 am SW 4.1 7.0----29.91- 51.4-----
2024-06-20 08:42 amWSW 4.1 8.0----29.91- 51.4-----
2024-06-20 08:36 am SW 4.1 7.0----29.91- 51.3-----
2024-06-20 08:30 am SW 6.0 8.0----29.91- 51.1-----
2024-06-20 08:24 am W 5.1 7.0----29.91- 51.3-----
2024-06-20 08:18 am SW 5.1 8.0----29.91- 51.1-----
2024-06-20 08:12 am SW 4.1 7.0----29.91- 51.6-----
2024-06-20 08:06 amSSW 4.1 7.0----29.91- 51.4-----
2024-06-20 08:00 am SW 5.1 8.9----29.91+0.02 51.1-----
2024-06-20 07:54 am SW 7.0 8.9----29.91- 51.3-----
2024-06-20 07:48 am SW 6.0 8.0----29.91- 51.3-----
2024-06-20 07:42 amWSW 5.1 8.9----29.91- 51.3-----
2024-06-20 07:36 amWSW 7.0 8.9----29.91- 51.1-----
2024-06-20 07:30 am SW 5.1 8.0----29.91- 51.1-----
2024-06-20 07:24 am SW 6.0 8.9----29.91- 51.3-----
2024-06-20 07:18 amWSW 6.0 8.0----29.91- 51.3-----
2024-06-20 07:12 amWSW 6.0 8.0----29.90- 51.6-----
2024-06-20 07:06 am SW 5.1 8.0----29.91- 51.8-----
2024-06-20 07:00 amWSW 6.0 8.9----29.90+0.01 51.6-----
2024-06-20 06:54 amWSW 6.0 8.9----29.90- 51.3-----
2024-06-20 06:48 amSSW 5.1 8.9----29.90- 51.3-----
2024-06-20 06:42 am SW 6.0 9.9----29.90- 51.3-----
2024-06-20 06:36 am SW 6.0 9.9----29.90- 50.9-----
2024-06-20 06:30 amWSW 4.1 7.0----29.90- 51.3-----
2024-06-20 06:24 am SW 5.1 8.0----29.90- 51.1-----
2024-06-20 06:18 amWSW 4.1 8.0----29.90- 51.1-----
2024-06-20 06:12 amWSW 5.1 8.9----29.90- 51.1-----
2024-06-20 06:06 am SW 6.0 8.9----29.90- 51.1-----
2024-06-20 06:00 am SW 6.0 8.0----29.90+0.00 50.9-----
2024-06-20 05:54 amWSW 5.1 8.9----29.90- 51.1-----
2024-06-20 05:48 amWSW 6.0 8.9----29.90- 51.4-----
2024-06-20 05:42 am W 5.1 8.9----29.90- 51.4-----
2024-06-20 05:36 amWSW 5.1 9.9----29.90- 51.3-----
2024-06-20 05:30 amWSW 6.0 8.9----29.89- 51.1-----
2024-06-20 05:18 am SW 7.0 12.0----29.89- 51.3-----
2024-06-20 05:12 amWSW 7.0 9.9----29.89- 51.6-----
2024-06-20 05:06 amWSW 5.1 8.9----29.89- 51.8-----
2024-06-20 05:00 amWSW 7.0 11.1----29.89-0.02 52.0-----
2024-06-20 04:54 amWSW 5.1 8.9----29.89- 52.0-----
2024-06-20 04:48 am W 7.0 8.9----29.89- 52.0-----
2024-06-20 04:42 am W 5.1 12.0----29.89- 51.8-----
2024-06-20 04:36 amWSW 7.0 13.0----29.89- 51.4-----
2024-06-20 04:30 am W 8.0 11.1----29.89- 52.0-----
2024-06-20 04:24 am W 8.9 13.0----29.89- 52.0-----
2024-06-20 04:18 amWSW 8.9 13.0----29.89- 52.2-----
2024-06-20 04:12 amWSW 5.1 9.9----29.89- 52.3-----
2024-06-20 04:06 amWSW 6.0 8.0----29.89- 52.2-----
2024-06-20 04:00 amWSW 5.1 14.0----29.89-0.03 52.0-----
2024-06-20 03:54 am W 5.1 8.9----29.89- 52.2-----
2024-06-20 03:48 am SW 6.0 8.0----29.89- 52.5-----
2024-06-20 03:42 amWSW 5.1 7.0----29.89- 52.5-----
2024-06-20 03:36 amWSW 5.1 8.0----29.89- 52.2-----
2024-06-20 03:30 amWSW 5.1 8.0----29.89- 52.0-----
2024-06-20 03:24 am W 6.0 8.9----29.89- 52.2-----
2024-06-20 03:18 am W 7.0 11.1----29.90- 52.3-----
2024-06-20 03:12 amWSW 6.0 8.9----29.90- 52.0-----
2024-06-20 03:06 am W 8.0 11.1----29.90- 52.3-----
2024-06-20 03:00 amWSW 7.0 9.9----29.90-0.04 51.8-----
2024-06-20 02:54 amWSW 5.1 8.0----29.90- 52.0-----
2024-06-20 02:48 amWSW 5.1 7.0----29.90- 52.0-----
2024-06-20 02:42 am SW 6.0 8.9----29.90- 51.6-----
2024-06-20 02:36 am W 6.0 11.1----29.91- 52.2-----
2024-06-20 02:30 amWSW 6.0 9.9----29.91- 51.8-----
2024-06-20 02:24 amWSW 6.0 8.9----29.91- 51.8-----
2024-06-20 02:18 amWSW 5.1 7.0----29.91- 51.6-----
2024-06-20 02:12 amWSW 8.0 11.1----29.91- 52.0-----
2024-06-20 02:06 am W 7.0 11.1----29.91- 52.0-----
2024-06-20 02:00 amWSW 5.1 9.9----29.91-0.01 52.0-----
2024-06-20 01:54 amWSW 5.1 8.9----29.91- 51.8-----
2024-06-20 01:48 amWSW 5.1 9.9----29.91- 52.2-----
2024-06-20 01:42 am W 7.0 11.1----29.91- 52.0-----
2024-06-20 01:36 am SW 7.0 8.9----29.91- 51.8-----
2024-06-20 01:30 amWSW 4.1 7.0----29.91- 52.2-----
2024-06-20 01:24 am SW 6.0 8.9----29.91- 52.0-----
2024-06-20 01:18 amWSW 5.1 8.0----29.92- 51.8-----
2024-06-20 01:12 amWSW 6.0 9.9----29.92- 52.0-----
2024-06-20 01:06 am W 5.1 9.9----29.92- 52.0-----
2024-06-20 01:00 amWSW 6.0 8.0----29.92-0.01 51.8-----
2024-06-20 12:54 am W 6.0 8.9----29.92- 51.8-----
2024-06-20 12:48 amWSW 6.0 9.9----29.92- 51.6-----
2024-06-20 12:36 am W 6.0 8.9----29.92- 51.8-----
2024-06-20 12:30 amWSW 5.1 9.9----29.93- 51.8-----
2024-06-20 12:24 am W 8.0 11.1----29.93- 52.2-----
2024-06-20 12:18 am W 8.0 14.0----29.93- 52.5-----
2024-06-20 12:12 am W 6.0 9.9----29.93- 53.1-----
2024-06-20 12:06 am W 5.1 12.0----29.93- 52.9-----
2024-06-20 12:00 amWSW 6.0 11.1----29.93+0.02 52.7-----
2024-06-19 11:54 pm W 6.0 11.1----29.93- 53.1-----
2024-06-19 11:48 pmWSW 7.0 11.1----29.93- 53.2-----
2024-06-19 11:42 pmWSW 7.0 11.1----29.93- 53.1-----
2024-06-19 11:36 pm W 8.9 14.0----29.93- 53.2-----
2024-06-19 11:30 pmWSW 6.0 12.0----29.93- 53.1-----
2024-06-19 11:24 pmWSW 7.0 8.9----29.93- 53.1-----
2024-06-19 11:18 pmWSW 6.0 8.9----29.93- 53.1-----
2024-06-19 11:12 pmWSW 7.0 8.9----29.93- 52.7-----
2024-06-19 11:06 pmWSW 6.0 8.9----29.93- 52.9-----
2024-06-19 11:00 pmWSW 7.0 9.9----29.93+0.02 52.7-----
2024-06-19 10:54 pmWSW 7.0 12.0----29.92- 52.9-----
2024-06-19 10:48 pmWSW 6.0 8.9----29.93- 52.9-----
2024-06-19 10:42 pmWSW 5.1 8.9----29.93- 53.1-----
2024-06-19 10:36 pm W 5.1 11.1----29.93- 53.4-----
2024-06-19 10:30 pm W 6.0 9.9----29.93- 53.4-----
2024-06-19 10:24 pm W 8.0 11.1----29.93- 53.6-----
2024-06-19 10:18 pm W 8.0 14.0----29.93- 53.4-----
2024-06-19 10:12 pm W 8.9 12.0----29.93- 53.6-----
2024-06-19 10:06 pm W 8.0 13.0----29.93- 54.0-----
2024-06-19 10:00 pm W 6.0 13.0----29.93+0.04 54.0-----
2024-06-19 09:54 pm W 8.0 11.1----29.93- 54.1-----
2024-06-19 09:48 pm W 9.9 14.0----29.92- 54.0-----
2024-06-19 09:42 pm W 9.9 15.0----29.92- 54.3-----
2024-06-19 09:36 pm W 12.0 15.9----29.92- 54.1-----
2024-06-19 09:30 pm W 9.9 14.0----29.91- 54.5-----
2024-06-19 09:24 pm W 11.1 14.0----29.92- 54.5-----
2024-06-19 09:18 pm W 9.9 15.9----29.92- 54.3-----
2024-06-19 09:12 pm W 12.0 17.1----29.91- 54.7-----
2024-06-19 09:06 pm W 13.0 19.0----29.91- 54.3-----
2024-06-19 09:00 pm W 12.0 15.0----29.91+0.02 54.7-----
2024-06-19 08:54 pm W 11.1 15.9----29.91- 54.9-----
2024-06-19 08:48 pm W 11.1 14.0----29.91- 55.0-----
2024-06-19 08:42 pm W 9.9 17.1----29.91- 54.7-----
2024-06-19 08:36 pm W 9.9 15.9----29.91- 54.7-----
2024-06-19 08:30 pm W 13.0 18.1----29.91- 54.7-----
2024-06-19 08:24 pm W 12.0 18.1----29.91- 54.9-----
2024-06-19 08:18 pm W 11.1 18.1----29.91- 55.2-----
2024-06-19 08:12 pm W 11.1 18.1----29.91- 55.0-----
2024-06-19 08:06 pmWSW 12.0 18.1----29.90- 55.0-----
2024-06-19 08:00 pm W 12.0 17.1----29.90+0.00 55.0-----
2024-06-19 07:54 pm W 13.0 18.1----29.90- 54.9-----
2024-06-19 07:48 pm W 11.1 14.0----29.90- 55.0-----
2024-06-19 07:42 pmWSW 9.9 15.0----29.90- 54.7-----
2024-06-19 07:36 pm W 12.0 17.1----29.90- 54.7-----
2024-06-19 07:30 pm W 12.0 20.0----29.90- 54.9-----
2024-06-19 07:24 pm W 8.9 13.0----29.90- 55.4-----
2024-06-19 07:18 pm W 12.0 18.1----29.89- 55.0-----
2024-06-19 07:12 pm W 8.9 14.0----29.89- 55.8-----
2024-06-19 07:06 pm W 11.1 15.9----29.89- 55.4-----
2024-06-19 07:00 pm W 12.0 17.1----29.89-0.02 55.6-----
2024-06-19 06:54 pm W 9.9 14.0----29.89- 55.4-----
2024-06-19 06:48 pmWSW 8.0 14.0----29.89- 55.2-----
2024-06-19 06:42 pm W 11.1 15.0----29.89- 55.6-----
2024-06-19 06:36 pm W 8.9 14.0----29.89- 55.6-----
2024-06-19 06:30 pmWNW 12.0 18.1----29.89- 55.8-----
2024-06-19 06:24 pm W 5.1 11.1----29.89- 55.8-----
2024-06-19 06:18 pm W 6.0 11.1----29.89- 56.1-----
2024-06-19 06:12 pmSSW 2.9 13.0----29.89- 55.8-----
2024-06-19 06:06 pm W 8.0 12.0----29.89- 55.8-----
2024-06-19 06:00 pm W 4.1 7.0----29.89-0.02 56.1-----
2024-06-19 05:54 pm W 5.1 11.1----29.89- 55.6-----
2024-06-19 05:48 pm W 6.0 11.1----29.89- 56.5-----
2024-06-19 05:42 pm W 5.1 9.9----29.90- 55.6-----
2024-06-19 05:36 pmWNW 8.9 12.0----29.89- 55.4-----
2024-06-19 05:30 pm W 8.0 14.0----29.90- 56.5-----
2024-06-19 05:24 pm W 8.9 15.0----29.90- 56.7-----
2024-06-19 05:18 pm W 11.1 15.0----29.90- 56.3-----
2024-06-19 05:12 pm W 7.0 13.0----29.90- 56.3-----
2024-06-19 05:06 pm W 6.0 12.0----29.90- 56.3-----
2024-06-19 05:00 pm W 6.0 8.0----29.90-0.02 56.7-----
2024-06-19 04:54 pmWSW 5.1 8.9----29.90- 57.4-----